Regional Weather Roundup
Issued by NWS

Home | Current Version | Previous Version | Graphics & Text | Print | Product List | Glossary On
Versions: 1 2 3 4 5 6 7 8 9 10 11 12 13 14 15 16 17 18 19 20 21 22 23 24 25 26 27 28 29 30 31 32 33 34 35 36 37 38 39 40 41 42 43 44 45 46 47 48 49 50
000
ASUS43 KMKX 080400
RWRWI

WISCONSIN REGIONAL WEATHER ROUNDUP
NATIONAL WEATHER SERVICE MILWAUKEE/SULLIVAN WI
1100 PM CDT TUE JUL 07 2015

NOTE: "FAIR" INDICATES FEW OR NO CLOUDS BELOW 12,000 FEET WITH NO
SIGNIFICANT WEATHER AND/OR OBSTRUCTIONS TO VISIBILITY.

WIZ001-002-006>008-014>016-023>028-080500-
NORTHWEST WISCONSIN

CITY           SKY/WX    TMP DP  RH WIND       PRES   REMARKS
SUPERIOR ARPT  CLEAR     53  50  92 SW5       30.10R
ASHLAND        CLEAR     50  49  96 S3        30.11S
HAYWARD        CLEAR     52  49  89 CALM      30.13S
SIREN          FAIR      53  49  87 CALM      30.12S
CUMBERLAND     CLEAR     55  50  82 CALM      30.13S
RICE LAKE      CLEAR     55  52  90 CALM      30.14S
CHETEK         NOT AVBL
LADYSMITH      CLEAR     52  49  88 CALM      30.15S
EAU CLAIRE     CLEAR     55  51  86 CALM      30.12R
MENOMONIE      CLEAR     58  53  81 CALM      30.12R
NEW RICHMOND   CLEAR     57  52  85 CALM      30.13R
OSCEOLA        CLEAR     56  56 100 CALM      30.15R
$$

WIZ003>005-009-010-017-018-080500-
NORTH CENTRAL WISCONSIN

CITY           SKY/WX    TMP DP  RH WIND       PRES   REMARKS
MANITOWISH WTR CLEAR     46  46 100 CALM      30.13S
ARBOR VITAE    CLEAR     52  49  89 CALM      30.14R
WOODRUFF       CLEAR     52  49  89 CALM      30.14R
RHINELANDER    CLEAR     47  45  93 CALM      30.14S
EAGLE RIVER    CLEAR     46  46 100 CALM      30.13S
LAND O LAKES   CLEAR     45  44  97 CALM      30.14S
PHILLIPS       FAIR      48  47  97 CALM      30.13S
TOMAHAWK       CLEAR     46  45  95 CALM      30.14S
MEDFORD        CLEAR     50  49  97 CALM      30.14R
MERRILL        CLEAR     50  49  96 CALM      30.13S
$$

WIZ029-030-035-036-043>047-080500-
CENTRAL WISCONSIN

CITY           SKY/WX    TMP DP  RH WIND       PRES   REMARKS
WAUSAU         CLEAR     56  48  74 CALM      30.11R
MOSINEE        CLEAR     54  48  82 N5        30.13R
MARSHFIELD     CLEAR     57  49  74 CALM      30.12S
STEVENS POINT  CLEAR     52  49  92 CALM      30.13R
WAUPACA        CLEAR     55  53  92 CALM      30.12S
WAUTOMA        NOT AVBL
WISC RAPIDS    CLEAR     55  50  83 CALM      30.13R
CAMP DOUGLAS   NOT AVBL
$$

WIZ011>013-019>022-031-037>040-048>050-080500-
NORTHEAST WISCONSIN

CITY           SKY/WX    TMP DP  RH WIND       PRES   REMARKS
ANTIGO         CLEAR     50  49  95 CALM      30.13S
SHAWANO        CLEAR     57  51  81 CALM      30.11S
OCONTO         CLEAR     52  52 100 CALM      30.11R
STURGEON BAY   CLEAR     52  45  76 S3        30.14S
GREEN BAY      CLEAR     56  51  84 S3        30.12R
MANITOWOC      NOT AVBL
APPLETON       PTCLDY    59  46  63 CALM      30.12R
CLINTONVILLE   CLEAR     55  50  82 CALM      30.11S
OSHKOSH        CLEAR     54  49  83 S7        30.11S
$$

WIZ032>034-041-042-053>061-080500-
SOUTHWEST WISCONSIN

CITY           SKY/WX    TMP DP  RH WIND       PRES   REMARKS
LA CROSSE      CLOUDY    64  55  72 CALM      30.11R
SPARTA         CLOUDY    57  52  83 CALM      30.12S
VIROQUA        CLOUDY    62  55  78 CALM      30.13R
BOSCOBEL       CLOUDY    59  55  87 CALM      30.12S
PRAIRIE DU CHI CLEAR     56  50  80 CALM      30.11S
PLATTEVILLE    PTCLDY    58  51  79 NE5       30.12R
$$

WIZ056-057-062-063-064-067-068-080500-
SOUTH CENTRAL WISCONSIN

CITY           SKY/WX    TMP DP  RH WIND       PRES   REMARKS
REEDSBURG      CLOUDY    62  55  76 E3        30.11S
BARABOO/DELLS  CLOUDY    61  55  83 CALM      30.11S
LONE ROCK      NOT AVBL
MINERAL POINT  CLEAR     59  48  67 NE3       30.12S
MADISON        MOCLDY    61  53  75 NE3       30.11S
MIDDLETON      CLOUDY    61  59  91 CALM      30.11F
WATERTOWN      CLEAR     55  51  85 NE3       30.11S
MONROE         CLEAR     59  52  77 N5        30.11S
JANESVILLE     CLEAR     55  52  88 CALM      30.11R
$$

WIZ051-052-058>065-066-070>072-080500-
SOUTHEAST WISCONSIN

CITY           SKY/WX    TMP DP  RH WIND       PRES   REMARKS
MILWAUKEE      PTCLDY    56  45  66 N5        30.11S
WAUKESHA       CLEAR     52  45  76 CALM      30.13S
MILWAUKEE/TIMM CLEAR     54  45  71 N5        30.12S
RACINE         CLEAR     53  48  83 MISG      30.12S
BURLINGTON     CLEAR     49  48  97 CALM      30.12S
KENOSHA        CLEAR     53  48  83 N6        30.11F
FOND DU LAC    CLEAR     54  51  90 S5        30.13R
SHEBOYGAN      CLEAR     52  50  93 CALM      30.12S
WEST BEND      CLEAR     50  46  87 CALM      30.12S
JUNEAU         CLEAR     55  50  81 CALM      30.13R
$$

LSZ147-162-080500-
LAKE SUPERIOR

STATION/POSITION TIME  TEMP    WIND        PRES    WAVE
                       AIR SEA DIR/SP/G            HT/PER
                 (UTC) (F)     (DEG/KT/KT) (MB)    (FT/S)
W MID LAKE BUOY  0250   49 40  220/  8/  8 1019.2R   1
DEVILS ISLAND    0300   63     180/  9/ 10 1019.0R
PORT WING        0300   61     130/  3/  4 1019.0
SAXON HARBOR     0340   55     190/  4/  8 1019.3R
$$

LMZ867-665-643>646-080500-
LAKE MICHIGAN

STATION/POSITION TIME  TEMP    WIND        PRES    WAVE
                       AIR SEA DIR/SP/G            HT/PER
                 (UTC) (F)     (DEG/KT/KT) (MB)    (FT/S)
CHAMBERS ISLAND  0300   63      40/  7/ 12 1019.3R
S GREEN BAY BUOY 0300   62 68  130/ 10/ 12 1020.8
N MID LAKE BUOY  0250   56 51  320/  4/  4 1019.1R   1/ 4
NORTHPORT PIER   0300   56        CALM     1019.3R
SISTER BAY       0214   58        CALM       N/A
ALGOMA LAKESHORE 0256             CALM       N/A
KEWAUNEE LAKESHO 0300   54      CALM  /  2 1019.0R
SHEBOYGAN LAKESH 0300   59     300/  2/  2 1020.2R
PORT WASHINGTON  0300   58     310/  4/  7 1020.3R
ATWATER BUOY     0300   58 59  340/  8/ 12 1020.6R
MILWAUKEE LAKESH 0300   59     360/  7/ 10   N/A
KENOSHA   LAKESH 0300   58     330/  5/  8 1019.6R
$$

TC  - TEMPERATURE IN CELSIUS
VSB - VISIBILITY IN STATUTE MILES
WCI - WIND CHILL INDEX
HX  - HEAT INDEX




USA.gov is the U.S. government's official web portal to all federal, state and local government web resources and services.